.
WxDataArchive / Data Records for 2006-07-12
2006-07-11 July 2006 2006-07-13

Data Records for Wednesday, 12 July 2006

Time	Temp	Chill	HIndex	Humid	Dewpt	 Wind 	HiWind	WindDir	Rain 	Barom 
-----	----	-----	------	-----	-----	------	------	-------	-----	----- 
00:00	73.5	73.5	73.5	91	70.7	2	5	248	0.00	29.871 
00:05	73.5	73.5	73.5	91	70.7	2	5	270	0.00	29.871 
00:10	73.5	73.5	73.5	91	70.7	1	3	248	0.00	29.871 
00:15	73.3	73.3	73.3	91	70.5	2	6	248	0.00	29.876 
00:20	73.3	73.3	73.3	91	70.5	2	4	248	0.00	29.876 
00:25	73.5	73.5	73.5	91	70.7	1	3	248	0.00	29.876 
00:30	73.5	73.5	73.5	91	70.7	2	5	248	0.00	29.879 
00:35	73.5	73.5	73.5	91	70.7	3	6	270	0.01	29.879 
00:40	73.3	73.3	73.3	91	70.5	4	9	248	0.01	29.879 
00:45	73.2	73.2	73.2	92	70.7	3	7	270	0.03	29.890 
00:50	73.2	73.2	73.2	92	70.7	4	9	270	0.01	29.890 
00:55	73.0	73.0	73.0	92	70.5	2	4	248	0.03	29.890 
01:00	72.8	72.8	72.8	93	70.7	3	6	248	0.02	29.889 
01:05	72.8	72.8	72.8	93	70.7	2	5	248	0.01	29.889 
01:10	72.8	72.8	72.8	93	70.7	1	3	248	0.01	29.889 
01:15	72.7	72.7	72.7	93	70.6	1	3	248	0.01	29.889 
01:20	72.7	72.7	72.7	94	70.9	1	3	248	0.00	29.889 
01:25	72.7	72.7	72.7	94	70.9	1	3	248	0.01	29.889 
01:30	72.7	72.7	72.7	94	70.9	1	3	248	0.01	29.889 
01:35	72.7	72.7	72.7	94	70.9	0	2	248	0.01	29.889 
01:40	72.7	72.7	72.7	94	70.9	0	1	248	0.00	29.889 
01:45	72.7	72.7	72.7	94	70.9	0	2	248	0.00	29.889 
01:50	72.7	72.7	72.7	94	70.9	0	2	248	0.00	29.889 
01:55	72.7	72.7	72.7	94	70.9	0	1	248	0.00	29.889 
02:00	72.5	72.5	72.5	94	70.7	0	1	248	0.00	29.884 
02:05	72.5	72.5	72.5	94	70.7	0	1	248	0.00	29.884 
02:10	72.5	72.5	72.5	94	70.7	0	3	248	0.00	29.884 
02:15	72.5	72.5	72.5	94	70.7	0	3	270	0.00	29.885 
02:20	72.5	72.5	72.5	94	70.7	0	1	270	0.00	29.885 
02:25	72.7	72.7	72.7	94	70.9	0	2	270	0.00	29.885 
02:30	72.7	72.7	72.7	94	70.9	0	2	270	0.00	29.886 
02:35	72.7	72.7	72.7	94	70.9	1	3	270	0.00	29.886 
02:40	72.7	72.7	72.7	94	70.9	1	3	248	0.00	29.886 
02:45	72.7	72.7	72.7	95	71.2	1	5	270	0.00	29.882 
02:50	72.7	72.7	72.7	94	70.9	1	3	248	0.00	29.882 
02:55	72.8	72.8	72.8	94	71.0	0	2	248	0.00	29.882 
03:00	72.8	72.8	72.8	94	71.0	0	3	248	0.01	29.878 
03:05	72.8	72.8	72.8	94	71.0	0	2	248	0.00	29.878 
03:10	72.8	72.8	72.8	94	71.0	0	2	248	0.00	29.878 
03:15	72.8	72.8	72.8	94	71.0	1	4	248	0.00	29.877 
03:20	72.8	72.8	72.8	94	71.0	1	3	248	0.00	29.877 
03:25	72.8	72.8	72.8	94	71.0	1	3	248	0.00	29.877 
03:30	72.8	72.8	72.8	94	71.0	1	6	248	0.00	29.878 
03:35	72.8	72.8	72.8	94	71.0	1	4	270	0.00	29.878 
03:40	72.8	72.8	72.8	94	71.0	1	6	270	0.00	29.878 
03:45	72.8	72.8	72.8	94	71.0	1	3	248	0.01	29.867 
03:50	72.8	72.8	72.8	94	71.0	1	2	248	0.00	29.867 
03:55	73.0	73.0	73.0	94	71.2	1	2	248	0.00	29.867 
04:00	72.8	72.8	72.8	94	71.0	1	3	248	0.00	29.862 
04:05	72.8	72.8	72.8	94	71.0	1	4	248	0.00	29.862 
04:10	72.8	72.8	72.8	94	71.0	1	3	248	0.00	29.862 
04:15	73.0	73.0	73.0	94	71.2	1	3	270	0.00	29.861 
04:20	73.0	73.0	73.0	94	71.2	1	3	248	0.00	29.861 
04:25	73.0	73.0	73.0	94	71.2	1	3	248	0.00	29.861 
04:30	73.0	73.0	73.0	94	71.2	1	3	270	0.00	29.859 
04:35	72.8	72.8	72.8	94	71.0	1	3	270	0.00	29.859 
04:40	72.8	72.8	72.8	94	71.0	1	4	292	0.00	29.859 
04:45	72.8	72.8	72.8	94	71.0	1	5	225	0.00	29.853 
04:50	72.8	72.8	72.8	94	71.0	1	4	248	0.00	29.853 
04:55	72.8	72.8	72.8	94	71.0	1	2	248	0.00	29.853 
05:00	72.8	72.8	72.8	94	71.0	1	2	248	0.00	29.860 
05:05	72.8	72.8	72.8	94	71.0	2	4	248	0.00	29.860 
05:10	72.8	72.8	72.8	94	71.0	1	5	248	0.00	29.860 
05:15	72.8	72.8	72.8	94	71.0	1	4	248	0.00	29.854 
05:20	73.0	73.0	73.0	94	71.2	1	3	248	0.00	29.854 
05:25	72.8	72.8	72.8	94	71.0	1	4	248	0.00	29.854 
05:30	72.8	72.8	72.8	94	71.0	1	3	248	0.00	29.849 
05:35	72.8	72.8	72.8	94	71.0	1	3	248	0.00	29.849 
05:40	72.8	72.8	72.8	94	71.0	1	4	248	0.00	29.849 
05:45	72.8	72.8	72.8	94	71.0	1	2	248	0.00	29.850 
05:50	72.8	72.8	72.8	94	71.0	1	4	248	0.00	29.850 
05:55	72.8	72.8	72.8	93	70.7	1	3	248	0.00	29.850 
06:00	73.0	73.0	73.0	93	70.8	1	4	248	0.00	29.858 
06:05	73.0	73.0	73.0	93	70.8	1	5	248	0.00	29.858 
06:10	73.0	73.0	73.0	93	70.8	2	5	248	0.00	29.858 
06:15	73.0	73.0	73.0	93	70.8	2	5	225	0.00	29.860 
06:20	73.0	73.0	73.0	93	70.8	2	5	248	0.00	29.860 
06:25	73.0	73.0	73.0	93	70.8	1	4	248	0.00	29.860 
06:30	73.0	73.0	73.0	93	70.8	1	4	248	0.00	29.862 
06:35	73.0	73.0	73.0	92	70.5	1	3	248	0.00	29.862 
06:40	73.2	73.2	73.2	92	70.7	1	3	248	0.00	29.862 
06:45	73.2	73.2	73.2	92	70.7	1	3	248	0.00	29.866 
06:50	73.0	73.0	73.0	92	70.5	1	4	248	0.00	29.866 
06:55	73.0	73.0	73.0	92	70.5	2	4	248	0.00	29.866 
07:00	73.0	73.0	73.0	92	70.5	1	3	248	0.00	29.868 
07:05	73.0	73.0	73.0	92	70.5	1	5	248	0.00	29.868 
07:10	73.0	73.0	73.0	92	70.5	1	3	248	0.00	29.868 
07:15	73.0	73.0	73.0	92	70.5	1	2	225	0.00	29.872 
07:20	73.2	73.2	73.2	92	70.7	1	3	270	0.00	29.872 
07:25	73.2	73.2	73.2	92	70.7	1	5	270	0.00	29.872 
07:30	73.2	73.2	73.2	92	70.7	1	4	248	0.00	29.874 
07:35	73.2	73.2	73.2	92	70.7	2	4	248	0.00	29.874 
07:40	73.2	73.2	73.2	92	70.7	1	3	248	0.00	29.874 
07:45	73.2	73.2	73.2	92	70.7	1	4	248	0.00	29.876 
07:50	73.2	73.2	73.2	92	70.7	1	3	248	0.00	29.876 
07:55	73.3	73.3	73.3	92	70.8	1	4	225	0.00	29.876 
08:00	73.3	73.3	73.3	92	70.8	2	4	270	0.00	29.887 
08:05	73.3	73.3	73.3	91	70.5	2	6	248	0.00	29.887 
08:10	73.3	73.3	73.3	92	70.8	1	4	248	0.00	29.887 
08:15	73.3	73.3	73.3	92	70.8	1	3	248	0.00	29.885 
08:20	73.5	73.5	73.5	92	71.0	1	3	225	0.00	29.885 
08:25	73.5	73.5	73.5	92	71.0	1	5	248	0.00	29.885 
08:30	73.7	73.7	73.7	91	70.9	2	5	248	0.00	29.886 
08:35	73.9	73.9	73.9	91	71.1	1	4	225	0.00	29.886 
08:40	73.9	73.9	73.9	91	71.1	1	4	270	0.00	29.886 
08:45	73.9	73.9	73.9	91	71.1	2	5	248	0.00	29.889 
08:50	74.0	74.0	74.0	91	71.2	1	3	248	0.00	29.889 
08:55	74.4	74.4	74.4	90	71.3	2	4	248	0.00	29.889 
09:00	74.6	74.6	74.6	89	71.1	2	4	270	0.00	29.890 
09:05	74.6	74.6	74.6	89	71.1	1	4	248	0.00	29.890 
09:10	74.6	74.6	74.6	89	71.1	1	4	270	0.00	29.890 
09:15	74.6	74.6	74.6	89	71.1	1	4	248	0.00	29.893 
09:20	74.6	74.6	74.6	89	71.1	1	4	248	0.00	29.893 
09:25	74.6	74.6	74.6	89	71.1	2	5	248	0.00	29.893 
09:30	74.6	74.6	74.6	89	71.1	2	5	248	0.00	29.895 
09:35	74.4	74.4	74.4	90	71.3	1	3	270	0.00	29.895 
09:40	74.4	74.4	74.4	90	71.3	1	6	270	0.00	29.895 
09:45	74.4	74.4	74.4	90	71.3	2	5	248	0.00	29.899 
09:50	74.4	74.4	74.4	90	71.3	2	4	248	0.00	29.899 
09:55	74.4	74.4	74.4	90	71.3	1	3	248	0.00	29.899 
10:00	74.4	74.4	74.4	90	71.3	1	4	248	0.00	29.900 
10:05	74.4	74.4	74.4	90	71.3	0	2	248	0.00	29.900 
10:10	74.4	74.4	74.4	90	71.3	1	6	248	0.00	29.900 
10:15	74.4	74.4	74.4	90	71.3	1	3	270	0.00	29.896 
10:20	74.4	74.4	74.4	90	71.3	1	3	248	0.00	29.896 
10:25	74.4	74.4	74.4	89	70.9	1	4	248	0.00	29.896 
10:30	74.6	74.6	74.6	89	71.1	1	4	248	0.00	29.901 
10:35	74.6	74.6	74.6	89	71.1	2	5	248	0.00	29.901 
10:40	74.6	74.6	74.6	89	71.1	2	5	248	0.00	29.901 
10:45	74.7	74.7	74.7	89	71.2	2	5	248	0.00	29.892 
10:50	74.7	74.7	74.7	89	71.2	1	4	248	0.00	29.892 
10:55	74.9	74.9	74.9	89	71.4	1	5	270	0.00	29.892 
11:00	75.3	75.3	75.0	88	71.5	2	5	270	0.00	29.897 
11:05	75.3	75.3	75.1	87	71.2	2	5	248	0.00	29.897 
11:10	75.4	75.4	75.1	88	71.6	1	3	248	0.00	29.897 
11:15	75.4	75.4	75.3	87	71.2	1	3	270	0.00	29.898 
11:20	75.4	75.4	75.3	87	71.2	1	4	248	0.00	29.898 
11:25	75.4	75.4	75.4	86	70.9	2	4	248	0.00	29.898 
11:30	75.4	75.4	75.3	87	71.2	2	4	248	0.00	29.903 
11:35	75.4	75.4	75.3	87	71.2	2	5	248	0.00	29.903 
11:40	75.4	75.4	75.3	87	71.2	2	6	248	0.00	29.903 
11:45	75.4	75.4	75.3	87	71.2	2	6	248	0.00	29.906 
11:50	75.4	75.4	75.3	87	71.2	2	5	248	0.00	29.906 
11:55	75.6	75.6	75.6	87	71.4	2	4	248	0.00	29.906 
12:00	75.6	75.6	75.6	87	71.4	1	3	248	0.00	29.905 
12:05	75.8	75.8	76.0	87	71.6	1	4	248	0.00	29.905 
12:10	76.5	76.5	77.4	86	72.0	2	5	248	0.00	29.905 
12:15	77.4	77.4	79.2	85	72.5	1	4	248	0.00	29.900 
12:20	78.3	78.3	81.0	83	72.7	2	4	248	0.00	29.900 
12:25	78.5	78.5	81.3	81	72.2	2	4	248	0.00	29.900 
12:30	78.6	78.6	81.5	81	72.3	2	6	248	0.00	29.899 
12:35	78.8	78.8	81.8	80	72.1	3	6	270	0.00	29.899 
12:40	78.6	78.6	81.4	80	71.9	2	6	248	0.00	29.899 
12:45	78.5	78.5	81.2	80	71.8	2	7	248	0.00	29.904 
12:50	78.3	78.3	80.8	80	71.6	2	5	270	0.00	29.904 
12:55	78.1	78.1	80.5	81	71.8	2	5	270	0.00	29.904 
13:00	78.6	78.6	81.4	80	71.9	2	4	248	0.00	29.902 
13:05	78.6	78.6	81.4	80	71.9	2	4	248	0.00	29.902 
13:10	78.5	78.5	81.2	80	71.8	2	4	248	0.00	29.902 
13:15	78.3	78.3	80.8	80	71.6	2	6	248	0.00	29.902 
13:20	78.1	78.1	80.5	81	71.8	1	4	270	0.00	29.902 
13:25	77.9	77.9	80.1	81	71.6	2	5	270	0.00	29.902 
13:30	77.9	77.9	80.1	81	71.6	2	5	270	0.00	29.904 
13:35	78.5	78.5	81.3	82	72.5	1	2	270	0.00	29.904 
13:40	78.8	78.8	81.9	81	72.5	1	2	270	0.00	29.904 
13:45	78.3	78.3	80.9	81	72.0	1	4	270	0.01	29.905 
13:50	77.0	77.0	78.4	84	71.8	1	2	292	0.02	29.905 
13:55	75.6	75.6	75.8	86	71.1	1	3	270	0.02	29.905 
14:00	75.1	75.1	74.6	88	71.3	0	1	270	0.00	29.906 
14:05	74.9	74.9	74.9	90	71.8	1	2	270	0.00	29.906 
14:10	75.3	75.3	74.5	91	72.5	0	1	270	0.00	29.906 
14:15	75.3	75.3	74.5	91	72.5	1	2	270	0.00	29.906 
14:20	75.4	75.4	74.7	91	72.6	1	4	270	0.00	29.906 
14:25	76.3	76.3	76.5	92	73.8	1	3	270	0.00	29.906 
14:30	77.2	77.2	78.6	90	74.0	1	3	270	0.00	29.899 
14:35	77.6	77.6	79.6	88	73.8	1	2	270	0.00	29.899 
14:40	77.9	77.9	80.2	85	73.0	2	6	248	0.00	29.899 
14:45	78.5	78.5	81.4	84	73.2	2	6	270	0.00	29.896 
14:50	78.6	78.6	81.6	83	73.0	2	5	248	0.00	29.896 
14:55	78.8	78.8	82.0	83	73.2	2	6	315	0.00	29.896 
15:00	79.4	79.4	83.1	81	73.0	2	4	248	0.00	29.893 
15:05	79.4	79.4	83.0	80	72.7	2	4	315	0.00	29.893 
15:10	79.4	79.4	83.3	83	73.8	0	2	292	0.00	29.893 
15:15	78.8	78.8	81.9	82	72.8	1	2	292	0.00	29.894 
15:20	77.4	77.4	79.2	82	71.5	1	4	270	0.00	29.894 
15:25	77.2	77.2	78.8	86	72.7	0	1	292	0.00	29.894 
15:30	76.8	76.8	78.0	86	72.3	0	3	292	0.00	29.894 
15:35	76.7	76.7	77.8	86	72.2	0	2	45	0.00	29.894 
15:40	76.1	76.1	76.6	87	71.9	0	2	0	0.00	29.894 
15:45	76.1	76.1	76.4	89	72.6	0	1	0	0.00	29.897 
15:50	76.1	76.1	76.3	90	72.9	0	1	0	0.00	29.897 
15:55	76.1	76.1	76.3	90	72.9	0	1	0	0.00	29.897 
16:00	76.1	76.1	76.3	90	72.9	0	1	0	0.00	29.889 
16:05	76.3	76.3	76.7	90	73.1	0	2	0	0.00	29.889 
16:10	76.3	76.3	76.8	89	72.8	1	6	68	0.00	29.889 
16:15	76.3	76.3	76.8	89	72.8	0	2	68	0.00	29.884 
16:20	76.1	76.1	76.5	88	72.3	0	1	68	0.00	29.884 
16:25	76.1	76.1	76.4	89	72.6	0	2	68	0.00	29.884 
16:30	76.0	76.0	76.3	88	72.2	0	3	68	0.00	29.889 
16:35	75.8	75.8	75.9	88	72.0	0	1	292	0.00	29.889 
16:40	75.6	75.6	75.4	89	72.1	0	1	292	0.00	29.889 
16:45	75.6	75.6	75.4	89	72.1	0	1	292	0.00	29.889 
16:50	75.6	75.6	75.4	89	72.1	0	1	292	0.00	29.889 
16:55	75.6	75.6	75.4	89	72.1	0	1	292	0.00	29.889 
17:00	75.6	75.6	75.4	89	72.1	0	1	292	0.00	29.883 
17:05	75.6	75.6	75.5	88	71.8	0	3	202	0.00	29.883 
17:10	75.6	75.6	75.5	88	71.8	0	1	202	0.00	29.883 
17:15	75.6	75.6	75.5	88	71.8	0	1	202	0.01	29.893 
17:20	75.6	75.6	75.4	89	72.1	0	1	202	0.00	29.893 
17:25	75.6	75.6	75.5	88	71.8	0	1	202	0.00	29.893 
17:30	75.8	75.8	75.8	89	72.3	0	1	202	0.00	29.889 
17:35	76.0	76.0	76.2	89	72.5	0	2	202	0.00	29.889 
17:40	76.1	76.1	76.5	88	72.3	0	1	202	0.00	29.889 
17:45	76.3	76.3	76.9	87	72.1	0	1	202	0.00	29.891 
17:50	76.3	76.3	77.0	86	71.8	0	1	202	0.00	29.891 
17:55	76.1	76.1	76.6	86	71.6	0	1	202	0.00	29.891 
18:00	76.1	76.1	76.6	87	71.9	0	0	---	0.00	29.886 
18:05	76.3	76.3	76.9	87	72.1	0	0	---	0.00	29.886 
18:10	76.3	76.3	76.9	87	72.1	0	0	---	0.00	29.886 
18:15	76.5	76.5	77.3	87	72.3	0	0	---	0.00	29.884 
18:20	76.7	76.7	77.7	87	72.5	0	0	---	0.00	29.884 
18:25	76.5	76.5	77.5	85	71.6	0	0	---	0.00	29.884 
18:30	76.5	76.5	77.5	85	71.6	0	0	---	0.00	29.885 
18:35	76.7	76.7	77.8	85	71.8	0	0	---	0.00	29.885 
18:40	76.7	76.7	77.8	85	71.8	0	0	---	0.00	29.885 
18:45	76.8	76.8	78.1	84	71.6	0	0	---	0.00	29.882 
18:50	76.8	76.8	78.1	84	71.6	0	0	---	0.00	29.882 
18:55	77.0	77.0	78.4	84	71.8	0	1	202	0.00	29.882 
19:00	77.0	77.0	78.4	84	71.8	0	0	---	0.00	29.879 
19:05	77.6	77.6	79.6	83	72.0	0	1	202	0.00	29.879 
19:10	78.1	78.1	80.5	82	72.1	0	1	202	0.00	29.879 
19:15	78.1	78.1	80.5	81	71.8	0	1	202	0.00	29.875 
19:20	77.7	77.7	79.8	82	71.8	0	0	---	0.00	29.875 
19:25	77.7	77.7	79.8	82	71.8	0	0	---	0.00	29.875 
19:30	77.6	77.6	79.6	83	72.0	0	0	---	0.00	29.873 
19:35	77.6	77.6	79.6	82	71.7	0	1	202	0.00	29.873 
19:40	77.4	77.4	79.2	82	71.5	0	0	---	0.00	29.873 
19:45	77.2	77.2	78.9	82	71.3	0	1	202	0.00	29.884 
19:50	77.2	77.2	78.8	83	71.6	0	1	202	0.00	29.884 
19:55	77.0	77.0	78.4	84	71.8	0	0	---	0.00	29.884 
20:00	77.0	77.0	78.4	84	71.8	0	1	202	0.00	29.887 
20:05	76.8	76.8	78.0	85	71.9	0	1	202	0.00	29.887 
20:10	76.7	76.7	77.8	85	71.8	0	1	202	0.00	29.887 
20:15	76.7	76.7	77.8	86	72.2	0	1	202	0.00	29.888 
20:20	76.5	76.5	77.4	86	72.0	0	0	---	0.00	29.888 
20:25	76.5	76.5	77.4	86	72.0	0	0	---	0.00	29.888 
20:30	76.5	76.5	77.4	86	72.0	0	0	---	0.00	29.891 
20:35	76.5	76.5	77.3	87	72.3	0	0	---	0.00	29.891 
20:40	76.5	76.5	77.3	87	72.3	0	0	---	0.00	29.891 
20:45	76.5	76.5	77.2	88	72.7	0	0	---	0.00	29.898 
20:50	76.3	76.3	76.8	88	72.5	0	1	202	0.00	29.898 
20:55	76.3	76.3	76.8	88	72.5	0	0	---	0.00	29.898 
21:00	76.1	76.1	76.4	89	72.6	0	1	202	0.00	29.902 
21:05	76.1	76.1	76.4	89	72.6	0	1	202	0.00	29.902 
21:10	76.0	76.0	76.2	89	72.5	0	1	202	0.00	29.902 
21:15	75.8	75.8	75.8	89	72.3	0	0	---	0.00	29.897 
21:20	75.8	75.8	75.6	90	72.6	0	1	202	0.00	29.897 
21:25	75.8	75.8	75.6	90	72.6	0	1	202	0.00	29.897 
21:30	75.6	75.6	75.2	90	72.4	0	2	180	0.00	29.895 
21:35	75.6	75.6	75.2	90	72.4	0	1	180	0.00	29.895 
21:40	75.4	75.4	74.8	90	72.3	0	0	---	0.00	29.895 
21:45	75.3	75.3	74.7	90	72.2	0	1	180	0.00	29.894 
21:50	75.3	75.3	74.7	90	72.2	0	1	180	0.00	29.894 
21:55	75.1	75.1	74.3	90	72.0	0	1	180	0.00	29.894 
22:00	74.9	74.9	74.9	91	72.1	0	0	---	0.00	29.907 
22:05	74.9	74.9	74.9	91	72.1	0	0	---	0.00	29.907 
22:10	74.7	74.7	74.7	91	71.9	0	1	180	0.00	29.907 
22:15	74.7	74.7	74.7	91	71.9	0	0	---	0.00	29.916 
22:20	74.7	74.7	74.7	91	71.9	0	0	---	0.00	29.916 
22:25	74.6	74.6	74.6	91	71.8	0	0	---	0.00	29.916 
22:30	74.6	74.6	74.6	91	71.8	0	1	180	0.00	29.915 
22:35	74.6	74.6	74.6	91	71.8	0	1	180	0.00	29.915 
22:40	74.6	74.6	74.6	91	71.8	0	0	---	0.00	29.915 
22:45	74.4	74.4	74.4	91	71.6	0	0	---	0.00	29.919 
22:50	74.4	74.4	74.4	91	71.6	0	0	---	0.00	29.919 
22:55	74.4	74.4	74.4	91	71.6	0	1	180	0.00	29.919 
23:00	74.2	74.2	74.2	91	71.4	0	0	---	0.00	29.923 
23:05	74.2	74.2	74.2	92	71.7	0	0	---	0.00	29.923 
23:10	74.2	74.2	74.2	92	71.7	0	0	---	0.00	29.923 
23:15	74.0	74.0	74.0	92	71.5	0	0	---	0.00	29.921 
23:20	74.0	74.0	74.0	92	71.5	0	0	---	0.00	29.921 
23:25	73.9	73.9	73.9	92	71.4	0	0	---	0.00	29.921 
23:30	73.9	73.9	73.9	92	71.4	0	0	---	0.00	29.920 
23:35	73.9	73.9	73.9	92	71.4	0	0	---	0.00	29.920 
23:40	73.9	73.9	73.9	92	71.4	0	0	---	0.00	29.920 
23:45	73.7	73.7	73.7	92	71.2	0	0	---	0.00	29.919 
23:50	73.5	73.5	73.5	92	71.0	0	0	---	0.00	29.919 
23:55	73.5	73.5	73.5	92	71.0	0	0	---	0.00	29.919 

CoCoRaHS
IN-AL-39
A2 Web Hosting
Creative Commons License
GoDaddy
Look for:

loaded 2017-10-19 20:18:20 • last modified 2010-11-18 10:43:29
Privacy PolicyDisclaimer
• wx.awcolley.com is powered by PmWiki v.2002016 •
• all content (unless otherwise noted) © 2017 A W Colley